User: anonymous   Login
Location: Bégole
(43.1574°N, 0.3291°E)
Time: 12:57:02
(UTC+00:00)
Language:

DMSP 5D-3 F17 - Orbit

View from above orbital plane
View from above orbital plane
View from above satellite
View from above satellite

Ground track
Ground track

The orbit data is extracted from the following two-line orbital elements,

1 29522U 06050A   24054.09458507  .00000244  00000-0  15012-3 0  9996
2 29522  98.7492  67.0255 0009091 312.0495  47.9904 14.14401188892924
Epoch (UTC): 23 February 2024 02:16:12
Eccentricity: 0.0009091
inclination: 98.7492°
perigee height: 838 km
apogee height: 851 km
right ascension of ascending node: 67.0255°
argument of perigee: 312.0495°
revolutions per day: 14.14401188
mean anomaly at epoch: 47.9904°
orbit number at epoch: 89292

The dashed part of the orbit path shows where the satellite is in the earth's shadow,  

DLR